Satellite: CAPE1
Catalog number: 31130
Epoch time: 10097.09693798
Element set: 0856
Inclination: 097.9508 deg
RA of node: 140.3112 deg
Eccentricity: 0.0104192
Arg of perigee: 094.8648 deg
Mean anomaly: 266.4494 deg
Mean motion: 14.52157857 rev/day
Decay rate: 2.80e-06 rev/day^2
Epoch rev: 15734
Checksum: 321
Satellite: COMPASS
Catalog number: 32787
Epoch time: 10098.68645918
Element set: 640
Inclination: 097.8986 deg
RA of node: 164.3825 deg
Eccentricity: 0.0016272
Arg of perigee: 148.2954 deg
Mean anomaly: 211.9239 deg
Mean motion: 14.81822414 rev/day
Decay rate: 1.247e-05 rev/day^2
Epoch rev: 10520
Checksum: 321
Satellite: AAUSAT2
Catalog number: 32788
Epoch time: 10097.75087755
Element set: 0634
Inclination: 097.8999 deg
RA of node: 163.5730 deg
Eccentricity: 0.0015868
Arg of perigee: 152.0781 deg
Mean anomaly: 208.1288 deg
Mean motion: 14.81958798 rev/day
Decay rate: 1.159e-05 rev/day^2
Epoch rev: 10507
Checksum: 358
Satellite: DO-64
Catalog number: 32789
Epoch time: 10097.76575007
Element set: 0652
Inclination: 097.9060 deg
RA of node: 163.9838 deg
Eccentricity: 0.0016249
Arg of perigee: 150.2485 deg
Mean anomaly: 209.9656 deg
Mean motion: 14.82062823 rev/day
Decay rate: 1.873e-05 rev/day^2
Epoch rev: 10507
Checksum: 336
Satellite: CO-66
Catalog number: 32791
Epoch time: 10097.21271582
Element set: 0631
Inclination: 097.8996 deg
RA of node: 162.9503 deg
Eccentricity: 0.0016135
Arg of perigee: 150.8574 deg
Mean anomaly: 209.3601 deg
Mean motion: 14.81613500 rev/day
Decay rate: 7.49e-06 rev/day^2
Epoch rev: 10494
Checksum: 307
Satellite: RS-30
Catalog number: 32953
Epoch time: 10098.42540834
Element set: 585
Inclination: 082.4979 deg
RA of node: 073.0549 deg
Eccentricity: 0.0017274
Arg of perigee: 255.1365 deg
Mean anomaly: 104.7800 deg
Mean motion: 12.43004713 rev/day
Decay rate: 1.0e-07 rev/day^2
Epoch rev: 8507
Checksum: 283
Satellite: TACSAT-3
Catalog number: 35001
Epoch time: 10097.94859470
Element set: 0258
Inclination: 040.4562 deg
RA of node: 275.8282 deg
Eccentricity: 0.0020879
Arg of perigee: 201.6136 deg
Mean anomaly: 158.3799 deg
Mean motion: 15.41085570 rev/day
Decay rate: 1.2344e-04 rev/day^2
Epoch rev: 04979
Checksum: 319
Satellite: PHARMSAT
Catalog number: 35002
Epoch time: 10097.86292862
Element set: 244
Inclination: 040.4697 deg
RA of node: 274.6113 deg
Eccentricity: 0.0024214
Arg of perigee: 205.7662 deg
Mean anomaly: 154.1953 deg
Mean motion: 15.41674318 rev/day
Decay rate: 1.0942e-04 rev/day^2
Epoch rev: 4979
Checksum: 295
Satellite: HAWKSAT1
Catalog number: 35003
Epoch time: 10097.83416732
Element set: 258
Inclination: 040.4577 deg
RA of node: 271.4312 deg
Eccentricity: 0.0021115
Arg of perigee: 217.2077 deg
Mean anomaly: 142.7286 deg
Mean motion: 15.44059560 rev/day
Decay rate: 2.2159e-04 rev/day^2
Epoch rev: 4983
Checksum: 280
Satellite: CP6
Catalog number: 35004
Epoch time: 10097.86381044
Element set: 0256
Inclination: 040.4573 deg
RA of node: 270.7824 deg
Eccentricity: 0.0020380
Arg of perigee: 219.4848 deg
Mean anomaly: 140.4491 deg
Mean motion: 15.44642324 rev/day
Decay rate: 2.6351e-04 rev/day^2
Epoch rev: 04983
Checksum: 290
Satellite: AEROCUB3
Catalog number: 35005
Epoch time: 10098.80297784
Element set: 270
Inclination: 040.4724 deg
RA of node: 265.0324 deg
Eccentricity: 0.0019566
Arg of perigee: 228.1403 deg
Mean anomaly: 131.7764 deg
Mean motion: 15.47157148 rev/day
Decay rate: 5.6845e-04 rev/day^2
Epoch rev: 4998
Checksum: 315
Satellite: DRAGNSAT
Catalog number: 35690
Epoch time: 10076.22711312
Element set: 316
Inclination: 051.6170 deg
RA of node: 315.4586 deg
Eccentricity: 0.0004999
Arg of perigee: 310.9891 deg
Mean anomaly: 057.3269 deg
Mean motion: 16.42150010 rev/day
Decay rate: 5.715194e-02 rev/day^2
Epoch rev: 3656
Checksum: 289
Satellite: POLLUX
Catalog number: 35693
Epoch time: 10087.99866888
Element set: 352
Inclination: 051.6099 deg
RA of node: 254.5746 deg
Eccentricity: 0.0006270
Arg of perigee: 294.4866 deg
Mean anomaly: 097.5899 deg
Mean motion: 16.52338462 rev/day
Decay rate: 2.3496735e-01 rev/day^2
Epoch rev: 3839
Checksum: 384
Satellite: CASTOR
Catalog number: 35694
Epoch time: 10098.77091105
Element set: 263
Inclination: 051.6386 deg
RA of node: 209.1601 deg
Eccentricity: 0.0004118
Arg of perigee: 304.2432 deg
Mean anomaly: 055.8175 deg
Mean motion: 15.92841645 rev/day
Decay rate: 7.5915e-04 rev/day^2
Epoch rev: 3996
Checksum: 303
Satellite: METEOR-M
Catalog number: 35865
Epoch time: 10098.74780315
Element set: 189
Inclination: 098.7657 deg
RA of node: 153.0185 deg
Eccentricity: 0.0001920
Arg of perigee: 189.1912 deg
Mean anomaly: 170.9195 deg
Mean motion: 14.21829466 rev/day
Decay rate: 1.76e-06 rev/day^2
Epoch rev: 2885
Checksum: 328
